ONEWEB-0246, 48786

Orbit data source: Space-Track

ONEWEB-0246, 48786 is a payload satellite owned by One Web (NAA) (UK) in LEO that was launched on Fri, 28 May 2021 UTC via a SOYUZ-2-1B launch vehicle from the Vostochny Cosmodrome (VOSTO). Payload-class satellites include a variety of spacecraft equipped with specific instruments for various scientific and technological missions. These include communications satellites like Starlink; space stations such as the ISS; scientific satellites like the Hubble; Earth observation satellites from companies like Planet Labs, Umbra, and HawkEye 360; GPS; miniature CubeSats for education and research; and military/defense satellites.

Loading next visibility...
Identifier
48786, 2021-045V
Orbit
LEO
Country
Flag of UKUK
Related business
Manufacturer
One Web
Mission
Operational Commercial Communications
Bus & Motor
ARROW, Unknown motor
Mass
148 kg wet, ~140 kg dry
Launch date (UTC)
2021-05-28 (5 years ago)
Launch vehicle
SOYUZ-2-1B
Launch site
Vostochny Cosmodrome (VOSTO)
Object type
Payload
Rocket body
Debris
Shape & HBR
Trap Box + 2 Pan, 6.7 m
Radar Cross Section
3.464 m², Large (>1 m²)

Expand to show TLE details & history
Last TLE update: 2 days ago

TLE from 2 days ago
0 ONEWEB-0246
1 48786U 21045V   26171.21971508  .00000104  00000-0  24179-3 0  9996
2 48786  87.9010 258.5836 0001852  99.3998 260.7342 13.15548786244675
Epoch: 2026-06-20T05:16Z
TLE epoch observation values (Epoch: 2026-06-20T05:16:23.382Z)
Latitude
-0.00002°
Longitude
-88.9513°
Altitude
1,204.891 km
Speed
7.251 km/s
True Right ascension
17h 14m 20s
True Declination
0° 00' 00"
Sunlit
Object was in full shadow at epoch
Visualization orbit readout
Latitude
Unknown
Longitude
Unknown
Altitude
Unknown
Speed
Unknown
Apparent Right ascension
Unknown
Apparent Declination
Unknown
Sunlit
N/A
Visualization observer readout
Local Sidereal Time
21:25:18
Azimuth
Unknown
Elevation
Unknown
Doppler factor
Unknown
Orbital elements
Apogee altitude
1,200.285 km
Perigee altitude
1,197.479 km
Semi-major axis
7,577.019 km
Eccentricity
0.00019
Inclination
87.901°
RAAN
258.5836°
Arg. of periapsis
99.3998°
True anomaly
260.71326°
Mean anomaly
260.7342°
Eccentric anomaly
260.72373°
Mean motion
3.29076 °/min
Orbital period
109.4 mins
BSTAR
0.00024179
Loading maneuver chart data...
Computing Atmospheric mass density...
Loading historical data...
Loading historical data...
Loading historical data...
Loading historical data...
Loading historical data...
Loading historical data...
Loading historical data...

Documentation

Showing up to 5 results
|